Location: Newark
(13.6797°N, 8.5297°E)
Time: 16:11:32
(UTC+00:00)

deb Explorer IX - Visible Passes

Search period start: 27 January 2020 00:00
Search period end: 06 February 2020 00:00
Orbit: 548 x 1101 km, 38.8° (Epoch: 26 January)

Date Brightness Start Highest point End Pass type
(mag) Time Alt. Az. Time Alt. Az. Time Alt. Az.
27 Jan ? 04:08:13 55° WSW 04:08:44 57° SW 04:14:19 10° SE visible
27 Jan ? 18:35:36 10° WSW 18:41:12 41° NNW 18:45:34 19° NNE visible
27 Jan ? 20:26:47 10° NW 20:26:56 10° NW 20:26:56 10° NW visible
28 Jan ? 03:47:31 49° S 03:47:31 49° S 03:52:04 10° SE visible
28 Jan ? 18:13:25 10° W 18:18:49 39° NNW 18:24:44 11° NE visible
28 Jan ? 20:04:42 10° NW 20:06:06 12° NNW 20:06:06 12° NNW visible
29 Jan ? 03:26:48 31° SSE 03:26:48 31° SSE 03:29:49 10° SE visible
29 Jan ? 17:51:14 10° W 17:56:27 38° NNW 18:02:27 10° NE visible
29 Jan ? 19:42:40 10° NW 19:45:06 12° NNW 19:45:12 12° NNW visible
30 Jan ? 03:06:03 18° SSE 03:06:03 18° SSE 03:07:32 10° SE visible
30 Jan ? 19:20:43 10° NW 19:22:43 11° NNW 19:24:14 11° N visible
31 Jan ? 18:58:55 10° NNW 19:00:21 11° NNW 19:01:48 10° N visible
01 Feb ? 18:37:49 10° NNW 18:38:00 10° NNW 18:38:09 10° NNW visible
